Location: ?ern� Novina
(50.6762°N, 14.8696°E)
Time: 17:58:13
(UTC+00:00)

CZ-4 R/B - Pass Details

Date: 03 March 2021
Orbit: 532 x 597 km, 97.7° (Epoch: 12 April)

Event Time Altitude Azimuth Distance (km) Brightness Sun altitude
Rises 18:03:10 0° 185° (S) 2,670 4.8 -13.1°
Reaches altitude 10° 18:05:22 10° 194° (SSW) 1,788 4.0 -13.4°
Maximum altitude 18:08:57 37° 263° (W) 859 3.0 -14.0°
Drops below altitude 10° 18:12:38 10° 331° (NNW) 1,826 4.5 -14.6°
Sets 18:14:54 0° 340° (NNW) 2,735 5.3 -14.9°
